This is the latest recevied weather packets stored in our database for station/object EA7OC-10. If no packets are shown the sender has not sent any weather packets the latest 10 day(s).
| Time | Temp. | Humidity | Pressure | Rain* | Wind** | Luminosity | Snow |
|---|---|---|---|---|---|---|---|
| 1777872476 | 17.78° C | 33% | 1014.7 hPa | - | - | - | - |
| 1777871575 | 18.33° C | 33% | 1014.7 hPa | - | - | - | - |
| 1777870675 | 18.89° C | 33% | 1014.7 hPa | - | - | - | - |
| 1777869775 | 18.33° C | 33% | 1014.6 hPa | - | - | - | - |
| 1777868875 | 18.33° C | 33% | 1014.7 hPa | - | - | - | - |
| 1777867975 | 18.89° C | 33% | 1014.6 hPa | - | - | - | - |
| 1777867075 | 18.89° C | 33% | 1014.7 hPa | - | - | - | - |
| 1777866171 | 18.89° C | 33% | 1014.6 hPa | - | - | - | - |
| 1777865270 | 18.89° C | 33% | 1014.8 hPa | - | - | - | - |
| 1777864370 | 18.89° C | 33% | 1014.8 hPa | - | - | - | - |
| 1777863470 | 18.89° C | 33% | 1014.9 hPa | - | - | - | - |
| 1777862570 | 18.89° C | 33% | 1014.8 hPa | - | - | - | - |
| 1777861670 | 18.33° C | 33% | 1014.8 hPa | - | - | - | - |
| 1777860770 | 18.33° C | 33% | 1014.9 hPa | - | - | - | - |
| 1777859870 | 18.33° C | 33% | 1015 hPa | - | - | - | - |
| 1777858970 | 17.78° C | 33% | 1015.1 hPa | - | - | - | - |
| 1777858070 | 17.22° C | 33% | 1015.2 hPa | - | - | - | - |
| 1777857170 | 16.67° C | 32% | 1015.2 hPa | - | - | - | - |
| 1777856269 | 16.67° C | 32% | 1015.3 hPa | - | - | - | - |
| 1777855369 | 17.22° C | 32% | 1015.3 hPa | - | - | - | - |
| 1777854469 | 17.78° C | 32% | 1015.4 hPa | - | - | - | - |
| 1777853569 | 18.33° C | 32% | 1015.6 hPa | - | - | - | - |
| 1777852665 | 18.89° C | 32% | 1015.6 hPa | - | - | - | - |
| 1777851765 | 19.44° C | 32% | 1015.7 hPa | - | - | - | - |
| 1777850865 | 19.44° C | 32% | 1015.7 hPa | - | - | - | - |
* Rain since midnight (hover to see other rain measurements)
** Current wind speed in m/s (hover to see current wind gust speed)